Location: Anumalkud?ru
(16.4847°N, 80.6636°E)
Time: 10:13:04
(UTC+00:00)

CZ-3B Rocket - Pass Details

Date: 11 April 2026
Orbit: 569 x 35764 km, 19.1° (Epoch: 12 May)

Event Time Altitude Azimuth Distance (km) Brightness Sun altitude
Rises 12:40:36 0° 275° (W) 3,304 8.8 1.9°
Reaches altitude 10° 12:42:04 10° 277° (W) 2,696 7.4 1.5°
Maximum altitude 12:47:48 79° 4° (N) 1,934 4.1 0.2°
Enters shadow 13:42:37 11° 94° (E) 18,667 8.4 -12.7°
Exits shadow 14:52:06 10° 100° (E) 30,107 9.5 -28.7°
Drops below altitude 10° 22:22:36 10° 124° (SE) 15,234 9.0 -29.1°
Sets 22:33:46 0° 119° (ESE) 13,501 8.9 -26.6°
